Weather History for Eagle, AK

Change the Weather History Date:

Tuesday, December 4, 2012

  Actual Average (PABN) Record (PABN)
Temperature  
Mean Temperature -30 °F -  
Max Temperature -20 °F 4 °F 44 °F (2011)
Min Temperature -40 °F 0 °F -29 °F (2012)
Degree Days  
Heating Degree Days 95    
Moisture  
Dew Point -34 °F    
Average Humidity 65    
Maximum Humidity 69    
Minimum Humidity 62    
Precipitation  
Precipitation 0.00 in - - ()
Sea Level Pressure  
Sea Level Pressure 30.01 in    
Wind  
Wind Speed 0 mph (NW)    
Max Wind Speed 4 mph    
Max Gust Speed -    
Visibility 7 miles    
Events Snow    
Averages and records for this station are not official NWS values.
T = Trace of Precipitation, MM = Missing Value Source: NWS Daily Summary

Daily Weather History Graph

Daily Weather History Graph

Search for Another Location

Airport:

Trip Planner

Search our weather history database for the weather conditions in past years. The results will help you decide how hot, cold, wet, or windy it might be!

Date:

Astronomy

Dec. 04, 2012 Rise Set
Actual Time 10:02 AM AKST 2:27 PM AKST
Civil Twilight 8:44 AM AKST 3:45 PM AKST
Nautical Twilight 7:35 AM AKST 4:53 PM AKST
Astronomical Twilight 6:35 AM AKST 5:54 PM AKST
Moon 10:15 PM AKST (12/4) 12:18 PM AKST (12/4)
Length of Visible Light 7h 00m
Length of Day
4h 25m
Waning Gibbous, 68% of the Moon is Illuminated
Dec 4
Waning Gibbous
Dec 6
Last Quarter
Dec 12
New
Dec 19
First Quarter
Dec 28
Full

Hourly Weather History & Observations

Time (AKST) Temp. Windchill Dew Point Humidity Pressure Visibility Wind Dir Wind Speed Gust Speed Precip Events Conditions
12:53 AM -29.0 °F - -36.9 °F 66% 30.16 in 10.0 mi Calm Calm - N/A   Overcast
1:53 AM -29.0 °F - -36.9 °F 66% 30.16 in 7.0 mi Calm Calm - N/A   Overcast
3:53 AM -36.0 °F - - N/A% 30.14 in 10.0 mi Calm Calm - N/A   Clear
4:53 AM -38.9 °F - - N/A% 30.14 in 10.0 mi Calm Calm - N/A   Clear
5:53 AM -40.0 °F - - N/A% 30.13 in 10.0 mi Calm Calm - N/A   Clear
6:53 AM -40.0 °F - - N/A% 30.12 in 10.0 mi Calm Calm - N/A   Clear
7:53 AM -38.0 °F - - N/A% 30.12 in 10.0 mi Calm Calm - N/A   Overcast
8:53 AM -33.0 °F - - N/A% 30.10 in 10.0 mi Calm Calm - N/A   Overcast
9:53 AM -29.9 °F - - N/A% 30.09 in 10.0 mi Calm Calm - N/A   Overcast
10:53 AM -29.0 °F - -36.0 °F 69% 30.08 in 10.0 mi Calm Calm - N/A   Overcast
11:53 AM -27.9 °F - -36.0 °F 65% 30.06 in 10.0 mi Calm Calm - N/A   Overcast
12:21 PM -27.4 °F - -34.6 °F 69% 29.93 in 1.8 mi Calm Calm - 0.00 in Snow Light Snow
12:34 PM -27.4 °F - -36.4 °F 62% 29.93 in 3.0 mi Calm Calm - 0.00 in Snow Light Snow
12:45 PM -27.4 °F - -36.4 °F 62% 29.93 in 7.0 mi Calm Calm - 0.00 in   Overcast
12:53 PM -27.9 °F - -36.0 °F 65% 30.05 in 10.0 mi Calm Calm - 0.00 in   Overcast
1:00 PM -27.4 °F - -36.4 °F 62% 29.92 in 10.0 mi Calm Calm - N/A   Overcast
1:53 PM -27.0 °F - -35.0 °F 66% 30.03 in 10.0 mi Calm Calm - N/A   Overcast
2:53 PM -26.0 °F - -34.1 °F 66% 30.02 in 3.0 mi Calm Calm - 0.00 in Snow Light Snow
3:53 PM -25.1 °F - -33.0 °F 66% 30.01 in 6.0 mi Calm Calm - 0.00 in Snow Light Snow
4:34 PM -25.6 °F -37.1 °F -32.8 °F 69% 29.88 in 2.5 mi NW 3.5 mph - 0.00 in Snow Light Snow
4:46 PM -23.8 °F - -32.8 °F 63% 29.88 in 3.0 mi Calm Calm - 0.00 in Snow Light Snow
4:53 PM -24.0 °F -35.2 °F -33.0 °F 63% 30.01 in 3.0 mi Variable 3.5 mph - 0.00 in Snow Light Snow
5:08 PM -23.8 °F - -32.8 °F 63% 29.87 in 2.5 mi Calm Calm - 0.00 in Snow Light Snow
5:23 PM -23.8 °F - -32.8 °F 63% 29.87 in 4.0 mi Calm Calm - 0.00 in Snow Light Snow
5:53 PM -24.0 °F - -32.1 °F 66% 29.99 in 3.0 mi Calm Calm - 0.00 in Snow Light Snow
6:53 PM -24.0 °F - -32.1 °F 66% 29.98 in 8.0 mi Calm Calm - 0.00 in   Overcast
7:53 PM -23.1 °F - -31.0 °F 67% 29.97 in 4.0 mi Calm Calm - 0.00 in Snow Light Snow
8:53 PM -24.0 °F - -32.1 °F 66% 29.96 in 6.0 mi Calm Calm - 0.00 in   Haze
9:53 PM -22.0 °F - -29.9 °F 67% 29.94 in 8.0 mi Calm Calm - N/A   Overcast
10:53 PM -20.9 °F - -29.0 °F 66% 29.94 in 3.0 mi Calm Calm - 0.00 in Snow Light Snow
11:53 PM -20.0 °F - -27.9 °F 67% 29.94 in 3.0 mi Calm Calm - 0.00 in Snow Light Snow